Regional Weather Roundup
Issued by NWS Mobile, AL

Home | Current Version | Previous Version | Text Only | Print | Product List | Glossary On
Versions: 1 2 3 4 5 6 7 8 9 10 11 12 13 14 15 16 17 18 19 20 21 22 23 24 25 26 27 28 29 30 31 32 33 34 35 36 37 38 39 40 41 42 43 44 45 46 47 48 49 50
000
ASUS44 KMOB 020517
RWRMOB
REGIONAL WEATHER ROUNDUP
NATIONAL WEATHER SERVICE MOBILE AL
1200 AM CDT TUE JUN 02 2015

ALZ061>064-020600-
COASTAL ALABAMA


CITY           SKY/WX    TMP DP  RH WIND       PRES   REMARKS
MOBILE REG APT PTCLDY    71  70  96 CALM      30.03S
BROOKLEY FIELD PTCLDY    72  71  97 NW3       30.04R
GULF SHORES    PTCLDY    72  71  98 CALM      30.02S

$$

ALZ051>060-020600-
INTERIOR SOUTHWEST AND SOUTH CENTRAL ALABAMA


CITY           SKY/WX    TMP DP  RH WIND       PRES   REMARKS
ANDALUSIA/OPP  MOCLDY    72  67  84 CALM      30.05F
EVERGREEN      PTCLDY    67  67 100 S3        30.04F FOG
FLORALA        FOG       67  66  97 CALM      30.07S VSB 1/4
GREENVILLE     FAIR      67  65  93 CALM      30.05S

$$

FLZ001>006-020600-
WESTERN FLORIDA PANHANDLE


CITY           SKY/WX    TMP DP  RH WIND       PRES   REMARKS
CRESTVIEW      MOCLDY    67  66  97 CALM      30.06S FOG
DESTIN         PTCLDY    73  70  90 CALM      30.03F
DUKE FIELD     PTCLDY    68  67  96 NE1       30.03S
MARY ESTHER    PTCLDY    70  67  89 CALM      30.02S
MILTON         MOCLDY    72  68  87 E5        30.05R
PENSACOLA      PTCLDY    71  70  96 NE6       30.03R
NAS PENSACOLA  PTCLDY    72  70  93 CALM      30.02S
VALPARAISO     PTCLDY    70  69  94 NE3       30.03F

$$

...MARINE OBSERVATIONS...

STATION/POSITION TIME  SKY/WX   TEMP    WIND        PRES    VSBY
                                AIR SEA DIR/SP/G
                 (UTC)          (F)     (DEG/KT/KT) (MB)    (MI)
PASCAGOULA       0400            76      70/  1/  2 1016.1R
PETIT BOIS ISL   0400            81     200/  6/  7 1016.7R
E DAUPHIN ISLAND 0500            80     170/  6/  9 1016.1S
MIDDLE BAY LIGHT 0400            78     160/  8     1015.6R
USCG MOBILE BAY  0400            74 82  360/  3/  4 1015.5R
STATE DOCKS      0400            74 80              1016.4R
MEAHER PARK      0500            73      40/  2     1016.6S
FORT MORGAN      0400            79     170/  5/  6 1016.0R
12 S ORANGE BCH  0450            80 81  200/  8/  8 1016.0R
WVE H/P(F/S)=  1/ 4

PENSACOLA BAY    0400            77 83   50/  3/  6 1016.9R
64 S DAUPHIN ISL 0450            80 83  230/  8/  8 1017.0R
WVE H/P(F/S)=  1/ 5

115 SE PENSACOLA 0450            79 81  220/ 10/ 12 1017.2F
WVE H/P(F/S)=  1/ 7

MID GULF/42001   0450            78 83   20/  4/  6 1017.2F
WVE H/P(F/S)=  1/ 7

EAST GULF/42003  0450            81 82  130/  4/  6 1016.3F
WVE H/P(F/S)=  1/ 6


$$

...NEARBY LOCATIONS

CITY           SKY/WX    TMP DP  RH WIND       PRES   REMARKS
GULFPORT       MOCLDY    78  70  76 E3        30.00S
BILOXI         MOCLDY    76  69  80 E3        30.00S
PASCAGOULA     MOCLDY    71  70  96 CALM      30.01S
HATTIESBURG    MOCLDY    72  70  93 CALM      30.03S
LAUREL         CLEAR     72  66  83 N8        30.04S
MERIDIAN       PTCLDY    71  66  84 N9        30.05R
MERIDIAN NAS   PTCLDY    70  66  87 N6        30.06R
MONTGOMERY     MOCLDY    72  68  87 CALM      30.05S
MAXWELL AFB    MOCLDY    71  70  96 CALM      30.04F
TROY           MOCLDY    70  68  93 CALM      30.06S
FORT RUCKER      N/A     68  66  93 CALM      30.04S
DALEVILLE      MOCLDY    69  68  97 CALM      30.05S
DOTHAN         MOCLDY    70  69  97 CALM      30.08F

$$

...OTHER SURROUNDING LOCATIONS...

CITY           SKY/WX    TMP DP  RH WIND       PRES   REMARKS
BIRMINGHAM     MOCLDY    68  65  90 CALM      30.08F
TUSCALOOSA     MOCLDY    69  65  86 N7        30.06S
COLUMBUS GA    MOCLDY    70  66  87 NW3       30.05F
PANAMA CITY    NOT AVBL
TALLAHASSEE    MOCLDY    72  69  90 CALM      30.04F
BATON ROUGE    CLEAR     71  68  90 CALM      30.01S
NEW ORLEANS    PTCLDY    77  69  76 SW9       30.00F
SLIDELL        CLOUDY    74  73  97 CALM      29.99F
JACKSON        CLEAR     67  65  93 CALM      30.05S
MCCOMB         CLEAR     72  68  87 N8        30.03S

$$

...SURROUNDING MARINE OBSERVATIONS...

STATION/POSITION TIME  SKY/WX   TEMP    WIND        PRES    VSBY
                                AIR SEA DIR/SP/G
                 (UTC)          (F)     (DEG/KT/KT) (MB)    (MI)
WAVELAND         0400            77 83   CALM  /  2 1016.1S
PASCAGOULA RGN A 0400            76      60/  4/  5 1015.8R
PASCAGOULA PORT  0400               82                N/A
GRAND ISLE       0400            80 86  250/  5/  7 1016.4R
SOUTHWEST PASS   0500            78     210/  8/  9 1016.8F
PILOT STATION E  0400            78 76  210/  5/  6 1017.2R
SHELL BEACH      0400            79 86  240/  2/  3 1015.5R
PANAMA CITY      0400            74 83   90/  3/  4 1016.7S
APALACHICOLA     0400            73 81   10/  6/  8 1017.2R
TYNDALL TOWER C  0500            80     250/  6/  7 1016.8F
S APLCHCLA/42036 0450            81 83  220/  6/  8 1016.9F
WVE H/P(F/S)=  1


$$




USA.gov is the U.S. government's official web portal to all federal, state and local government web resources and services.